Starlink 4525

operational
NORAD ID: 53401 Int'l Des: 2022-097 Owner: SPXS Country: US Constellation: starlink
LEOCIRCULAR

关于 Starlink 4525

正在加载描述...

实时位置

正在加载3D地球...

即将过境

高度历史

Altitude vs Time

uPlot chart will show altitude changes over time

两行轨道根数

1 53401U 22097P 25302.52760936 .00004183 00000-0 28087-3 0 9997
2 53401 53.2196 352.9293 0001557 84.6050 275.5120 15.08823168178713
Epoch: Oct 29, 2025 • Age: 10 hours

当前状态

高度 546.6 km
速度 7.59 km/s
星下点 -22.17°S, 163.3°E
发射日期 Aug 10, 2022
运行时间 3.2 years
类型 internet

技术详情

分类 Payload
质量 297.00 kg
干质量 275.00 kg
总质量 297.00 kg
长度 0.20 m
直径 2.80 m
跨度 9.00 m
形状 Box + pan
制造商 SPXS
平台类型 Starlink
阶段状态 In Orbit
所有者/国家 SPXS/US

大型星座

Loading constellations...